Temperature
8 8 8 8 8 8 8 8 8 8 8 8 8 7 7 7 7 7 6 6 6 5 5 5 4 4 4 3 3 3 2 2 2 2 2 2 2 2 3 2 2 2 2
8 8 8 8 8 8 8 8 8 8 8 7 7 7 7 6 6 6 6 5 5 5 4 4 4 4 3 3 3 3 2 2 2 2 2 2 2 2 2 2 2 2 2
7 7 7 7 7 7 7 7 7 7 7 7 6 6 6 6 6 5 5 5 4 4 4 4 3 3 3 3 2 2 2 2 2 2 2 2 2 2 2 2 2 2 1
7 7 7 7 7 7 7 7 7 6 6 6 6 6 5 5 5 5 4 4 4 3 3 3 3 3 3 2 2 2 2 2 2 1 1 1 1 1 1 1 1 1 1
6 6 6 6 6 6 6 6 6 5 5 5 5 5 5 5 4 4 4 3 3 3 3 3 3 2 2 2 2 2 2 2 1 1 1 1 1 1 0 -0 -0 0 1
5 6 5 5 5 5 5 5 5 5 5 4 4 4 4 4 4 3 3 3 3 3 2 2 2 2 2 2 2 2 1 1 1 1 0 0 0 -0 -1 -1 -1 -1 -1
5 4 4 5 5 4 4 4 4 4 4 4 4 4 4 4 3 3 2 2 2 2 2 2 2 2 1 1 1 1 1 1 1 0 0 -0 -0 -1 -1 -1 -1 -2 -1
4 4 4 4 4 4 4 4 4 4 3 3 3 3 3 3 3 2 2 2 2 2 2 1 1 1 1 1 1 1 1 1 1 0 -0 -0 -1 -1 -2 -2 -2 -2 -1
3 3 3 3 3 3 3 3 3 3 3 3 2 2 2 2 2 2 2 2 1 1 1 1 1 1 1 1 1 1 1 1 0 0 -0 -1 -1 -1 -1 -2 -2 -2 -2
2 2 2 2 2 2 2 2 2 2 2 2 2 2 1 1 1 1 1 1 1 1 1 1 0 0 0 0 0 0 0 0 0 0 -0 -0 -1 -1 -1 -2 -2 -2 -3
1 1 1 1 1 1 1 1 1 1 1 1 1 1 1 1 1 1 0 0 -0 -0 -0 0 0 -0 -0 -0 -0 -0 -0 -0 -0 -0 -1 -1 -1 -1 -1 -1 -2 -2 -3
0 0 1 1 1 1 1 0 0 0 0 0 0 0 0 -0 -0 -0 -0 -0 -1 -1 -1 -1 -0 -0 -1 -1 -1 -1 -1 -1 -1 -1 -1 -1 -1 -1 -1 -1 -2 -2 -2
-0 -0 0 0 -0 -0 -0 -0 -0 -0 -0 -0 -1 -1 -1 -1 -1 -1 -1 -1 -1 -1 -1 -1 -1 -1 -1 -1 -1 -1 -1 -1 -1 -1 -1 -1 -2 -2 -2 -2 -2 -2 -2
-1 -1 -1 -1 -1 -1 -1 -1 -1 -1 -1 -1 -1 -1 -1 -1 -1 -1 -1 -1 -1 -1 -1 -1 -1 -1 -1 -1 -1 -1 -1 -2 -2 -2 -2 -2 -2 -2 -2 -2 -2 -2 -2
-1 -1 -1 -1 -1 -1 -1 -1 -2 -2 -2 -2 -2 -2 -2 -2 -2 -2 -2 -2 -2 -2 -2 -2 -1 -1 -2 -1 -1 -2 -2 -2 -2 -2 -2 -2 -2 -2 -2 -2 -3 -3 -3
-2 -2 -2 -2 -2 -2 -2 -2 -2 -2 -2 -3 -3 -3 -3 -2 -2 -2 -3 -3 -2 -2 -2 -2 -2 -2 -2 -2 -2 -2 -2 -2 -2 -2 -3 -3 -3 -3 -3 -3 -3 -3 -3
-3 -2 -2 -2 -2 -2 -2 -2 -2 -3 -3 -3 -3 -3 -3 -3 -3 -3 -3 -3 -3 -3 -3 -3 -3 -3 -3 -3 -3 -3 -3 -3 -3 -3 -3 -3 -3 -3 -3 -3 -3 -3 -3
-3 -3 -3 -3 -3 -3 -3 -3 -3 -3 -3 -3 -3 -3 -3 -3 -3 -3 -3 -3 -3 -3 -3 -3 -3 -3 -3 -3 -3 -3 -3 -3 -3 -3 -3 -3 -3 -3 -3 -3 -3 -4 -4
-4 -3 -3 -3 -4 -4 -4 -4 -4 -4 -4 -4 -4 -4 -4 -4 -4 -4 -4 -4 -4 -4 -4 -4 -4 -4 -4 -3 -4 -3 -3 -3 -3 -3 -4 -4 -4 -4 -4 -4 -4 -4 -4
-4 -4 -4 -4 -4 -4 -4 -4 -4 -4 -4 -4 -4 -4 -4 -4 -4 -4 -4 -4 -4 -4 -4 -4 -4 -4 -4 -4 -4 -4 -4 -4 -4 -4 -4 -4 -4 -4 -4 -4 -4 -4 -4
-4 -5 -4 -4 -4 -4 -5 -5 -5 -5 -5 -5 -5 -5 -5 -5 -5 -5 -5 -5 -5 -5 -4 -4 -4 -4 -4 -4 -4 -4 -4 -4 -4 -4 -4 -4 -4 -4 -4 -4 -4 -4 -4
-5 -5 -5 -5 -5 -5 -5 -5 -5 -5 -6 -6 -6 -6 -6 -5 -5 -5 -5 -5 -5 -5 -5 -5 -5 -5 -4 -5 -4 -4 -4 -4 -4 -4 -4 -4 -4 -4 -4 -4 -4 -4 -4
-5 -5 -5 -5 -5 -6 -6 -6 -6 -6 -6 -6 -6 -6 -6 -6 -6 -6 -6 -5 -5 -5 -5 -5 -5 -5 -5 -5 -5 -5 -4 -4 -4 -4 -4 -4 -4 -4 -4 -4 -4 -4 -4
-6 -6 -6 -6 -6 -6 -6 -6 -6 -6 -6 -6 -6 -6 -6 -6 -6 -6 -6 -6 -5 -5 -5 -5 -5 -5 -5 -5 -5 -5 -4 -4 -5 -4 -4 -4 -4 -4 -4 -4 -4 -4 -4
-6 -6 -6 -6 -6 -6 -6 -7 -7 -7 -7 -7 -7 -7 -7 -7 -6 -6 -6 -6 -6 -6 -5 -5 -5 -5 -5 -5 -5 -5 -5 -5 -5 -5 -4 -4 -4 -4 -4 -4 -4 -4 -4
-7 -7 -7 -7 -7 -7 -7 -7 -7 -7 -7 -7 -7 -7 -7 -7 -7 -6 -6 -6 -6 -6 -6 -6 -5 -5 -5 -5 -5 -5 -5 -5 -5 -4 -4 -4 -4 -4 -4 -4 -4 -4 -4
Wind_Speed
4 4 5 4 4 5 5 5 5 4 5 5 5 4 4 3 3 3 2 2 2 1 1 1 2 2 2 2 2 2 3 3 7 8 6 7 8 9 12 13 14 13 14
4 4 4 4 4 4 4 4 5 5 5 5 5 4 4 3 3 3 3 2 2 2 2 2 2 2 2 3 3 3 4 4 5 9 8 7 8 9 10 10 12 13 13
3 4 4 4 4 4 4 4 4 5 4 4 4 4 4 3 3 3 3 3 3 3 2 3 3 2 3 3 4 4 4 4 5 6 8 7 7 7 8 9 10 9 12
3 4 4 4 4 4 4 4 4 4 4 4 4 4 4 3 3 3 3 3 2 2 2 3 3 3 4 4 4 4 4 5 5 6 7 7 7 7 6 8 10 8 9
3 4 3 3 3 4 4 4 3 3 3 3 3 3 3 3 3 3 3 3 2 2 2 3 3 4 5 5 4 4 4 4 5 6 7 7 7 8 8 7 9 10 9
3 3 4 4 4 4 4 4 4 3 3 2 2 2 2 2 3 3 2 2 2 2 3 3 4 4 6 7 8 7 6 5 5 5 6 7 9 8 7 7 8 9 8
3 4 4 4 4 4 4 4 4 3 3 2 2 1 1 2 2 3 2 1 2 2 3 3 3 4 5 5 7 8 7 8 7 5 6 7 8 8 8 8 8 8 9
3 4 3 4 4 4 4 4 3 2 2 1 1 0 0 1 1 2 2 1 2 2 3 3 3 4 5 5 4 5 5 5 7 5 5 7 7 7 6 7 8 9 8
3 3 3 4 4 4 4 3 2 3 2 1 1 1 0 1 2 2 1 1 1 2 2 3 3 4 7 7 4 5 6 6 7 8 9 9 10 11 9 5 6 7 8
2 2 2 3 4 4 3 3 2 2 2 2 2 1 0 1 2 2 1 1 1 2 2 3 5 6 8 7 3 4 6 6 6 7 7 8 8 8 9 5 4 6 6
2 3 3 3 4 4 3 3 3 3 3 2 2 2 2 2 2 3 3 1 1 2 2 3 4 7 8 7 5 4 7 6 4 5 5 5 5 5 6 6 4 4 5
3 4 4 3 3 4 4 3 3 3 3 2 2 2 2 2 3 3 3 3 3 1 2 3 4 7 7 7 6 7 8 6 3 4 4 5 5 6 6 7 7 7 6
4 4 4 4 4 3 4 4 3 3 2 1 1 1 2 2 3 4 4 5 4 2 2 5 6 6 6 5 7 8 6 4 3 4 5 5 5 6 6 6 7 7 7
3 3 3 3 3 3 2 2 2 2 1 1 1 1 2 2 2 3 3 3 4 3 3 4 6 5 5 5 6 5 4 4 4 4 5 5 5 5 5 5 5 6 6
3 3 3 3 3 3 2 2 1 1 1 1 1 1 1 2 4 5 4 3 2 2 3 2 3 3 4 4 4 4 4 4 5 4 5 5 5 5 6 5 5 5 5
3 2 2 2 2 2 2 2 3 2 2 2 2 2 2 4 5 5 5 5 5 4 3 2 2 3 3 4 5 5 5 5 5 5 5 5 5 5 6 5 5 5 6
2 2 2 2 2 2 2 2 1 2 3 4 4 5 4 5 5 5 5 4 4 3 2 2 2 3 3 4 4 4 5 5 5 5 5 5 5 5 5 5 6 6 6
2 2 2 2 1 1 1 1 1 1 1 2 4 5 6 5 5 5 5 3 2 2 2 2 2 3 3 3 4 4 5 5 5 5 5 5 5 5 5 6 6 6 6
1 1 1 1 1 1 1 1 1 1 1 1 2 3 5 5 5 6 5 2 1 2 2 2 2 3 3 3 4 4 4 5 5 5 5 5 5 5 5 5 6 8 6
1 2 2 2 2 2 1 1 1 1 1 1 2 2 3 3 3 3 3 3 2 2 2 3 3 3 3 3 4 4 5 4 5 5 5 5 5 5 5 6 6 6 5
1 2 2 2 2 1 1 1 1 1 0 1 1 2 4 2 2 3 3 3 3 3 3 3 3 3 3 3 3 4 5 5 4 5 5 5 5 5 5 5 5 5 5
2 1 1 1 1 1 1 1 1 1 0 1 2 2 4 2 2 2 2 3 3 3 3 3 3 3 4 4 4 4 5 5 5 5 5 5 5 5 5 4 4 4 4
2 2 1 1 1 1 1 1 1 0 0 1 1 2 2 2 2 2 3 3 3 4 5 4 4 4 6 6 6 5 5 5 6 6 5 5 5 4 4 4 4 4 4
2 2 2 1 1 1 1 0 0 0 1 1 2 2 2 2 2 3 3 3 4 5 5 5 5 6 7 8 7 7 8 8 8 6 5 5 4 4 3 3 3 4 4
2 2 1 1 1 1 0 0 0 1 1 1 2 2 2 3 3 3 3 4 4 5 6 6 6 6 8 9 9 9 10 9 8 7 5 4 3 3 3 3 3 3 4
2 1 1 1 1 1 0 0 1 1 1 2 2 2 2 3 3 3 3 4 4 5 6 6 7 8 9 9 9 10 10 9 8 8 5 3 2 2 2 2 3 3 3
Wind_Direction
162 155 149 152 151 153 162 169 165 159 157 162 164 161 162 160 155 156 177 178 184 210 219 218 254 261 272 279 277 274 268 266 283 297 297 304 306 313 320 322 323 322 322
155 146 148 148 146 154 163 166 159 161 163 165 163 163 168 170 171 176 189 195 197 220 235 237 260 276 276 280 273 272 273 269 278 296 305 310 309 313 315 318 324 324 321
138 139 139 144 148 157 161 160 158 156 157 158 160 171 179 182 186 191 195 203 209 221 231 242 255 259 273 277 277 277 282 289 285 292 304 308 309 317 321 320 318 318 323
128 136 139 147 153 158 154 149 149 151 153 159 170 176 180 185 189 191 198 204 215 232 240 249 259 253 261 271 278 278 289 295 298 301 306 311 312 318 325 327 327 326 323
121 130 136 136 135 132 133 134 131 135 142 145 158 170 173 183 195 199 198 200 210 243 263 265 273 289 290 288 290 288 291 295 306 308 310 316 318 328 329 326 323 321 317
118 127 126 126 125 126 129 127 122 116 118 126 142 167 183 201 216 213 204 196 207 239 269 283 291 288 299 305 303 300 299 301 302 301 305 311 310 315 317 320 322 327 323
113 121 124 125 122 125 125 118 117 118 115 129 136 154 203 232 226 226 232 189 218 244 261 280 298 304 310 296 302 309 307 307 301 297 297 299 305 310 315 317 317 314 305
109 113 116 118 119 120 120 119 119 119 123 133 142 165 235 267 263 254 253 201 230 249 258 259 275 289 297 305 306 312 307 302 301 300 287 293 298 303 301 301 302 305 299
91 97 121 127 126 124 121 120 120 116 112 113 136 128 148 304 308 275 275 221 247 266 274 281 292 287 301 320 321 313 314 314 318 315 312 312 315 318 322 324 326 325 319
80 89 100 118 124 127 127 119 110 118 115 96 61 43 15 310 335 345 324 226 274 299 305 305 308 312 316 327 321 310 311 314 323 328 325 323 321 320 326 325 313 315 315
66 79 82 101 116 120 113 108 112 103 92 78 58 21 12 359 356 357 352 332 278 301 309 313 311 321 326 328 326 306 307 320 322 319 319 321 327 327 324 322 311 296 299
76 82 84 94 102 106 110 103 102 102 92 76 64 32 13 354 2 356 357 352 347 317 308 308 315 326 333 333 332 330 336 339 329 326 327 328 328 325 320 319 314 307 290
81 83 83 85 91 102 115 114 105 101 99 81 60 24 347 345 343 352 352 352 355 349 321 327 331 337 344 341 341 347 351 344 334 330 325 320 318 314 317 320 323 323 316
97 94 95 98 97 94 99 106 109 109 104 82 42 355 335 336 339 341 336 342 351 349 345 342 346 349 352 349 350 349 346 338 335 322 320 318 319 320 321 323 325 331 330
96 94 93 94 105 98 83 80 94 128 166 172 239 268 300 313 329 343 345 339 339 340 354 359 356 349 352 350 347 347 345 343 342 334 328 326 326 326 326 330 328 331 332
102 95 98 96 95 96 88 56 44 51 45 23 358 345 330 331 336 343 343 345 350 4 15 0 348 346 347 344 343 342 341 340 337 332 327 326 326 326 328 331 332 333 332
112 111 111 107 104 100 100 96 60 31 37 40 26 7 356 350 345 346 349 350 358 20 21 354 341 338 336 334 333 332 331 328 327 326 328 329 331 330 330 332 333 333 333
100 113 114 119 118 110 108 108 100 60 12 2 2 8 10 5 2 2 4 16 3 6 356 338 333 329 326 326 327 328 328 329 331 329 329 329 331 331 333 333 331 331 331
89 100 104 107 108 109 100 88 80 61 27 354 354 1 9 8 16 19 22 22 349 336 339 336 328 321 319 320 322 324 323 321 324 325 325 326 328 330 331 331 330 331 334
88 108 104 105 102 98 90 86 83 81 36 9 356 349 349 4 12 5 6 2 349 335 332 327 321 315 315 316 320 324 323 321 323 323 323 325 327 327 328 328 330 333 335
101 109 102 95 101 107 108 103 97 86 40 353 331 339 357 1 355 345 343 346 339 328 323 317 314 313 315 317 320 322 319 316 318 319 321 323 325 326 326 324 326 331 337
115 110 106 110 107 104 99 106 105 100 21 333 327 335 353 354 344 332 327 328 327 321 317 312 307 305 306 308 313 315 315 315 315 316 318 319 319 321 323 327 334 339 344
126 123 110 101 102 104 71 72 81 62 311 307 313 325 332 329 321 317 316 317 318 321 321 317 312 313 316 315 310 303 299 303 305 305 309 310 314 318 323 331 336 339 343
135 133 127 114 100 104 96 60 28 328 299 297 304 310 308 303 304 306 310 312 317 319 319 316 314 313 315 318 316 310 305 306 309 306 303 302 309 316 324 333 339 340 341
141 140 140 143 142 143 136 52 324 310 303 300 302 304 305 304 304 308 310 313 314 315 315 316 316 316 315 315 316 316 316 319 321 322 315 310 307 312 324 335 342 344 348
150 152 151 150 161 174 178 233 287 296 298 299 298 295 296 298 301 304 308 313 316 316 316 316 316 317 316 316 316 320 324 327 330 334 335 322 320 328 339 341 343 354 357
Height
1492 1495 1498 1501 1504 1507 1509 1512 1514 1516 1517 1518 1519 1520 1521 1521 1522 1522 1522 1522 1522 1521 1521 1520 1520 1519 1517 1516 1514 1513 1511 1508 1503 1498 1496 1492 1489 1484 1480 1476 1471 1466 1461
1489 1492 1495 1498 1501 1503 1506 1508 1510 1512 1513 1515 1516 1517 1517 1518 1518 1518 1518 1518 1518 1518 1517 1517 1516 1515 1514 1512 1511 1509 1507 1504 1500 1495 1491 1488 1485 1481 1476 1472 1467 1462 1458
1486 1489 1491 1494 1497 1499 1502 1504 1506 1508 1509 1511 1512 1513 1514 1514 1515 1515 1515 1515 1515 1515 1514 1514 1512 1511 1510 1509 1507 1505 1503 1500 1497 1493 1488 1485 1481 1477 1472 1468 1463 1459 1454
1483 1485 1488 1491 1493 1496 1498 1500 1502 1504 1505 1507 1508 1509 1510 1511 1511 1511 1511 1511 1511 1511 1511 1510 1509 1508 1506 1505 1503 1501 1499 1496 1493 1490 1485 1481 1478 1474 1469 1464 1458 1454 1450
1481 1482 1485 1487 1490 1492 1494 1496 1498 1500 1502 1503 1504 1506 1507 1507 1508 1508 1508 1508 1508 1508 1507 1506 1505 1504 1503 1502 1500 1498 1495 1492 1489 1486 1482 1478 1474 1470 1466 1461 1456 1451 1446
1478 1480 1482 1484 1487 1489 1491 1492 1494 1496 1498 1499 1501 1502 1503 1504 1504 1505 1505 1505 1504 1504 1503 1502 1502 1501 1499 1498 1496 1494 1492 1489 1486 1483 1479 1475 1471 1468 1463 1459 1455 1449 1443
1476 1478 1480 1482 1484 1486 1488 1489 1491 1493 1494 1496 1497 1499 1499 1500 1501 1501 1501 1501 1501 1500 1499 1499 1498 1497 1495 1494 1492 1490 1488 1486 1483 1480 1476 1473 1469 1465 1461 1457 1453 1448 1443
1474 1475 1478 1479 1481 1483 1485 1486 1488 1490 1491 1493 1494 1495 1496 1497 1497 1498 1498 1498 1497 1497 1496 1495 1494 1493 1491 1490 1488 1486 1484 1482 1479 1476 1473 1470 1467 1463 1460 1456 1451 1446 1442
1472 1474 1476 1478 1479 1481 1483 1484 1485 1487 1489 1490 1491 1492 1493 1493 1494 1494 1495 1494 1494 1493 1493 1492 1491 1489 1488 1487 1485 1482 1480 1478 1476 1473 1470 1467 1464 1461 1457 1453 1448 1443 1438
1471 1472 1474 1476 1478 1479 1481 1482 1483 1485 1486 1487 1488 1489 1490 1490 1491 1491 1491 1491 1490 1490 1489 1488 1487 1486 1485 1483 1481 1478 1475 1473 1471 1469 1466 1464 1461 1458 1455 1451 1447 1442 1437
1470 1471 1473 1475 1477 1478 1479 1480 1482 1483 1484 1485 1486 1487 1488 1488 1488 1488 1488 1488 1487 1486 1485 1484 1483 1483 1481 1479 1477 1475 1473 1470 1468 1465 1462 1460 1457 1455 1452 1449 1445 1441 1437
1469 1470 1472 1473 1475 1476 1478 1479 1480 1481 1482 1483 1484 1484 1485 1485 1486 1485 1485 1485 1484 1483 1482 1481 1480 1479 1478 1476 1474 1472 1470 1467 1465 1462 1459 1456 1454 1451 1449 1446 1443 1440 1436
1468 1469 1471 1472 1474 1475 1476 1477 1478 1479 1480 1481 1481 1482 1482 1483 1483 1483 1483 1482 1481 1481 1480 1479 1478 1477 1475 1473 1471 1469 1467 1464 1461 1459 1456 1454 1452 1449 1447 1444 1440 1437 1434
1467 1468 1470 1471 1472 1474 1475 1476 1476 1477 1478 1479 1479 1480 1480 1480 1480 1480 1480 1479 1479 1478 1477 1476 1476 1474 1473 1471 1469 1466 1464 1462 1459 1457 1454 1452 1450 1447 1444 1441 1438 1434 1431
1466 1467 1468 1470 1471 1472 1473 1474 1475 1476 1477 1478 1478 1478 1478 1478 1478 1478 1477 1477 1476 1475 1474 1473 1472 1471 1469 1467 1466 1464 1462 1459 1457 1455 1453 1450 1448 1445 1442 1439 1436 1433 1430
1465 1466 1467 1468 1470 1471 1472 1473 1474 1475 1476 1476 1476 1476 1476 1476 1476 1475 1475 1474 1474 1473 1472 1471 1470 1468 1467 1465 1463 1461 1459 1457 1455 1453 1451 1449 1446 1443 1440 1438 1435 1432 1429
1464 1465 1466 1467 1468 1469 1470 1471 1472 1473 1474 1474 1474 1474 1474 1473 1473 1473 1472 1472 1472 1471 1470 1468 1468 1466 1465 1464 1462 1460 1458 1456 1454 1452 1449 1447 1444 1442 1439 1436 1434 1431 1428
1463 1464 1465 1466 1467 1468 1469 1470 1470 1471 1472 1472 1472 1472 1472 1471 1471 1470 1470 1469 1469 1468 1467 1466 1466 1465 1463 1462 1460 1459 1456 1454 1452 1450 1448 1446 1443 1441 1438 1436 1433 1430 1427
1462 1463 1464 1465 1466 1467 1468 1469 1469 1470 1470 1470 1470 1470 1470 1469 1469 1468 1467 1467 1466 1466 1465 1464 1464 1463 1461 1460 1459 1457 1455 1453 1451 1449 1447 1445 1442 1440 1437 1435 1432 1430 1427
1461 1462 1462 1463 1464 1465 1466 1467 1468 1468 1468 1468 1468 1468 1468 1467 1467 1466 1466 1465 1464 1464 1463 1463 1462 1461 1460 1458 1457 1455 1453 1451 1449 1447 1445 1444 1441 1439 1437 1434 1432 1429 1427
1459 1460 1461 1462 1463 1464 1465 1465 1466 1467 1467 1467 1467 1466 1466 1466 1465 1465 1464 1464 1463 1462 1462 1461 1460 1459 1458 1457 1455 1453 1452 1450 1448 1446 1444 1442 1440 1438 1436 1434 1432 1430 1427
1458 1459 1460 1461 1462 1463 1463 1464 1465 1465 1465 1465 1465 1465 1465 1464 1464 1463 1463 1462 1462 1461 1460 1459 1458 1457 1456 1455 1453 1452 1450 1448 1447 1445 1443 1441 1440 1438 1436 1434 1432 1430 1428
1457 1458 1459 1460 1460 1461 1462 1462 1463 1463 1463 1463 1463 1463 1463 1463 1462 1462 1461 1461 1460 1459 1458 1457 1457 1456 1455 1453 1452 1450 1449 1447 1445 1444 1442 1440 1439 1437 1435 1433 1432 1430 1428
1456 1457 1458 1458 1459 1460 1460 1461 1461 1461 1461 1461 1461 1461 1461 1461 1460 1460 1459 1459 1458 1457 1456 1455 1455 1454 1453 1451 1450 1449 1447 1446 1444 1443 1441 1440 1438 1437 1435 1434 1432 1431 1429
1455 1456 1457 1457 1458 1459 1459 1459 1460 1460 1459 1459 1459 1459 1459 1459 1458 1458 1457 1457 1456 1455 1454 1454 1453 1452 1451 1449 1448 1447 1446 1444 1443 1442 1441 1440 1438 1437 1436 1434 1433 1432 1430
1454 1455 1456 1456 1457 1457 1457 1458 1458 1458 1457 1457 1457 1457 1457 1456 1456 1455 1455 1454 1454 1453 1452 1452 1451 1450 1449 1447 1446 1445 1444 1443 1442 1441 1440 1439 1438 1437 1436 1435 1434 1432 1431